TimeCST,TemperatureF,Dew PointF,Humidity,Sea Level PressureIn,VisibilityMPH,Wind Direction,Wind SpeedMPH,Gust SpeedMPH,PrecipitationIn,Events,Conditions,WindDirDegrees,DateUTC
12:15 AM,33.8,33.8,100,30.02,10.0,SSE,10.4,-,N/A,,Mostly Cloudy,160,2013-02-07 06:15:00
12:55 AM,33.8,33.8,100,30.01,7.0,SSE,8.1,-,N/A,,Overcast,160,2013-02-07 06:55:00
1:15 AM,33.8,32.0,93,30.01,7.0,SSE,9.2,-,N/A,,Mostly Cloudy,160,2013-02-07 07:15:00
1:35 AM,33.8,32.0,93,30.01,7.0,SE,8.1,-,N/A,,Overcast,140,2013-02-07 07:35:00
1:55 AM,32.0,32.0,100,30.01,7.0,SSE,6.9,-,N/A,,Overcast,150,2013-02-07 07:55:00
2:15 AM,32.0,32.0,100,30.01,7.0,SE,6.9,-,N/A,,Overcast,140,2013-02-07 08:15:00
2:35 AM,32.0,32.0,100,30.00,7.0,SE,8.1,-,N/A,,Overcast,140,2013-02-07 08:35:00
2:55 AM,33.8,32.0,93,30.00,7.0,ESE,4.6,-,N/A,,Overcast,120,2013-02-07 08:55:00
3:15 AM,32.0,32.0,100,29.99,7.0,ESE,5.8,-,N/A,,Overcast,120,2013-02-07 09:15:00
3:35 AM,33.8,32.0,93,29.99,7.0,ESE,4.6,-,N/A,,Overcast,120,2013-02-07 09:35:00
3:55 AM,33.8,32.0,93,29.98,7.0,ESE,5.8,-,N/A,,Overcast,120,2013-02-07 09:55:00
4:15 AM,33.8,32.0,93,29.98,7.0,SE,6.9,-,N/A,,Mostly Cloudy,130,2013-02-07 10:15:00
4:35 AM,32.0,32.0,100,29.98,7.0,ESE,5.8,-,N/A,,Scattered Clouds,120,2013-02-07 10:35:00
4:55 AM,32.0,32.0,100,29.98,7.0,ESE,5.8,-,N/A,,Scattered Clouds,120,2013-02-07 10:55:00
5:15 AM,32.0,32.0,100,29.98,5.0,ESE,4.6,-,N/A,,Mostly Cloudy,120,2013-02-07 11:15:00
5:55 AM,32.0,32.0,100,29.98,4.0,SE,4.6,-,N/A,,Overcast,130,2013-02-07 11:55:00
6:15 AM,33.8,33.8,100,29.97,3.0,SE,6.9,-,N/A,,Overcast,130,2013-02-07 12:15:00
6:35 AM,33.8,33.8,100,29.97,3.0,ESE,6.9,-,N/A,,Overcast,120,2013-02-07 12:35:00
6:55 AM,33.8,33.8,100,29.96,2.5,SE,6.9,-,N/A,,Overcast,130,2013-02-07 12:55:00
7:15 AM,33.8,33.8,100,29.96,1.5,SE,9.2,-,N/A,,Overcast,130,2013-02-07 13:15:00
7:35 AM,33.8,33.8,100,29.96,1.5,SE,10.4,-,N/A,,Overcast,130,2013-02-07 13:35:00
7:55 AM,33.8,33.8,100,29.96,1.5,SE,8.1,-,N/A,,Overcast,140,2013-02-07 13:55:00
8:15 AM,33.8,33.8,100,29.96,1.5,SE,8.1,-,N/A,,Overcast,140,2013-02-07 14:15:00
8:35 AM,33.8,33.8,100,29.97,1.5,SSE,8.1,-,N/A,,Overcast,150,2013-02-07 14:35:00
8:55 AM,33.8,33.8,100,29.97,1.5,SSE,8.1,-,N/A,,Overcast,150,2013-02-07 14:55:00
9:15 AM,33.8,33.8,100,29.96,1.5,SSE,6.9,-,0.01,,Overcast,150,2013-02-07 15:15:00
9:35 AM,33.8,33.8,100,29.96,1.5,SE,4.6,-,0.01,Rain,Rain,140,2013-02-07 15:35:00
9:55 AM,33.8,33.8,100,29.95,1.5,SE,4.6,-,0.02,Rain,Light Rain,130,2013-02-07 15:55:00
10:15 AM,33.8,33.8,100,29.95,1.2,ESE,3.5,-,0.01,Rain,Light Rain,120,2013-02-07 16:15:00
10:35 AM,33.8,33.8,100,29.96,1.5,SE,6.9,-,0.03,Rain,Light Rain,130,2013-02-07 16:35:00
10:55 AM,33.8,33.8,100,29.95,1.2,SE,4.6,-,0.04,Rain,Rain,130,2013-02-07 16:55:00
11:15 AM,33.8,33.8,100,29.95,1.2,ESE,5.8,-,0.01,Rain,Light Rain,120,2013-02-07 17:15:00
11:35 AM,33.8,33.8,100,29.94,1.2,SE,3.5,-,0.02,Rain,Light Rain,130,2013-02-07 17:35:00
11:55 AM,33.8,33.8,100,29.93,0.8,SE,3.5,-,0.03,Snow,Light Snow,130,2013-02-07 17:55:00
12:15 PM,33.8,33.8,100,29.92,0.8,Calm,Calm,-,N/A,Snow,Light Snow,0,2013-02-07 18:15:00
12:35 PM,33.8,33.8,100,29.91,0.8,Calm,Calm,-,0.02,Snow,Light Snow,0,2013-02-07 18:35:00
12:55 PM,32.0,32.0,100,29.90,0.2,NE,4.6,-,0.03,Snow,Light Snow,40,2013-02-07 18:55:00
1:15 PM,33.8,33.8,100,29.90,0.2,NNE,4.6,-,0.01,Snow,Light Snow,30,2013-02-07 19:15:00
1:35 PM,32.0,32.0,100,29.89,0.2,NNE,5.8,-,0.01,Snow,Light Snow,30,2013-02-07 19:35:00
1:55 PM,33.8,33.8,100,29.88,0.2,NE,5.8,-,0.02,Snow,Light Snow,40,2013-02-07 19:55:00
2:15 PM,32.0,32.0,100,29.88,0.2,NNE,4.6,-,N/A,Snow,Light Snow,30,2013-02-07 20:15:00
2:35 PM,32.0,32.0,100,29.88,0.2,NNE,5.8,-,0.01,Snow,Light Snow,30,2013-02-07 20:35:00
2:55 PM,32.0,32.0,100,29.88,0.2,NNE,6.9,-,0.01,Snow,Light Snow,20,2013-02-07 20:55:00
3:15 PM,32.0,32.0,100,29.88,0.2,NNE,8.1,-,0.01,Snow,Light Snow,30,2013-02-07 21:15:00
3:35 PM,32.0,32.0,100,29.87,0.2,NNE,8.1,-,0.01,Snow,Light Snow,20,2013-02-07 21:35:00
3:55 PM,32.0,32.0,100,29.87,1.0,North,8.1,-,0.02,Snow,Light Snow,10,2013-02-07 21:55:00
4:15 PM,32.0,32.0,100,29.87,1.5,North,8.1,-,N/A,Snow,Light Snow,360,2013-02-07 22:15:00
4:35 PM,32.0,32.0,100,29.87,2.0,North,9.2,-,N/A,Snow,Light Snow,10,2013-02-07 22:35:00
4:55 PM,32.0,32.0,100,29.89,1.5,North,8.1,-,N/A,Snow,Light Snow,360,2013-02-07 22:55:00
5:15 PM,32.0,32.0,100,29.90,1.2,North,10.4,-,N/A,Snow,Light Snow,350,2013-02-07 23:15:00
5:35 PM,32.0,32.0,100,29.90,1.2,North,10.4,-,N/A,Snow,Light Snow,360,2013-02-07 23:35:00
5:55 PM,32.0,32.0,100,29.90,2.0,North,11.5,-,N/A,Snow,Light Snow,360,2013-02-07 23:55:00
6:15 PM,32.0,32.0,100,29.91,1.5,North,16.1,-,N/A,Snow,Light Snow,10,2013-02-08 00:15:00
6:35 PM,32.0,32.0,100,29.92,1.8,North,15.0,20.7,N/A,Snow,Light Snow,360,2013-02-08 00:35:00
6:55 PM,30.2,30.2,100,29.93,2.5,North,12.7,23.0,N/A,Snow,Light Snow,350,2013-02-08 00:55:00
7:15 PM,30.2,30.2,100,29.94,2.5,North,18.4,26.5,N/A,Snow,Light Snow,350,2013-02-08 01:15:00
7:35 PM,30.2,30.2,100,29.94,2.5,North,11.5,-,N/A,Snow,Light Snow,350,2013-02-08 01:35:00
7:55 PM,30.2,30.2,100,29.95,2.0,NNW,13.8,21.9,N/A,Snow,Light Snow,340,2013-02-08 01:55:00
8:15 PM,30.2,30.2,100,29.96,1.5,NNW,12.7,21.9,N/A,Snow,Light Snow,340,2013-02-08 02:15:00
8:35 PM,30.2,30.2,100,29.97,1.5,NNW,15.0,21.9,N/A,Snow,Light Snow,340,2013-02-08 02:35:00
8:55 PM,30.2,30.2,100,29.98,1.2,North,13.8,21.9,N/A,Snow,Light Snow,350,2013-02-08 02:55:00
9:15 PM,28.4,28.4,100,29.99,1.8,North,16.1,20.7,N/A,Snow,Light Snow,350,2013-02-08 03:15:00
9:35 PM,28.4,28.4,100,29.99,3.0,North,18.4,21.9,N/A,Snow,Light Snow,350,2013-02-08 03:35:00
9:55 PM,28.4,28.4,100,30.00,4.0,North,15.0,25.3,N/A,Snow,Light Snow,360,2013-02-08 03:55:00
10:15 PM,28.4,28.4,100,30.00,7.0,North,23.0,27.6,N/A,Snow,Light Snow,360,2013-02-08 04:15:00
10:35 PM,26.6,26.6,100,30.00,10.0,North,19.6,25.3,N/A,Snow,Light Snow,360,2013-02-08 04:35:00
10:55 PM,26.6,26.6,100,30.01,10.0,North,21.9,26.5,N/A,,Overcast,350,2013-02-08 04:55:00
11:15 PM,26.6,26.6,100,30.02,10.0,North,15.0,27.6,N/A,,Overcast,360,2013-02-08 05:15:00
11:35 PM,24.8,24.8,100,30.03,10.0,North,16.1,25.3,N/A,,Overcast,360,2013-02-08 05:35:00
11:55 PM,26.6,24.8,93,30.03,10.0,North,21.9,27.6,N/A,,Overcast,360,2013-02-08 05:55:00